Piney Island, NC

3:54 PM EDT on June 26, 2017 (GMT -0400)
Piney Island

Weather History for KNBT - February, 2014

Change the Weather History Date:

Friday, February 28, 2014

  Actual Average (KMRH) Record (KMRH)
Temperature  
Mean Temperature 40 °F -  
Max Temperature 43 °F 59 °F 76 °F (1954)
Min Temperature 36 °F 36 °F 20 °F (1968)
Degree Days  
Heating Degree Days 26    
Moisture  
Dew Point 28 °F    
Average Humidity 68    
Maximum Humidity 80    
Minimum Humidity 60    
Precipitation  
Precipitation 0.00 in - - ()
Sea Level Pressure  
Sea Level Pressure 30.23 in    
Wind  
Wind Speed 17 mph (NNE)    
Max Wind Speed 24 mph    
Max Gust Speed 32 mph    
Averages and records for this station are not official NWS values.
T = Trace of Precipitation, MM = Missing Value Source: NWS Daily Summary

Daily Weather History Graph

Daily Weather History Graph

Search for Another Location

Airport or City:

Trip Planner

Search our weather history database for the weather conditions in past years. The results will help you decide how hot, cold, wet, or windy it might be!

Date:

Astronomy

Feb. 28, 2014 Rise Set
Actual Time 6:36 AM EST 6:00 PM EST
Civil Twilight 6:11 AM EST 6:26 PM EST
Nautical Twilight 5:41 AM EST 6:55 PM EST
Astronomical Twilight 5:12 AM EST 7:24 PM EST
Moon 5:49 AM EST (2/28) 5:34 PM EST (2/28)
Length of Visible Light 12h 14m
Length of Day
11h 24m
Waning Crescent, 1% of the Moon is Illuminated
Feb 28
Waning Crescent
Mar 1
New
Mar 8
First Quarter
Mar 16
Full
Mar 23
Last Quarter

Hourly Weather History & Observations

Time (EST) Temp. Windchill Dew Point Humidity Pressure Visibility Wind Dir Wind Speed Gust Speed Precip Events Conditions
12:56 AM 43.0 °F 37.2 °F 37.0 °F 80% 30.00 in - NW 10.4 mph - N/A   Clear
1:56 AM 42.1 °F 34.2 °F 32.0 °F 67% 30.04 in - NNE 16.1 mph 25.3 mph N/A   Clear
2:56 AM 39.9 °F 30.5 °F 30.0 °F 68% 30.06 in - NNE 19.6 mph 27.6 mph N/A   Clear
3:56 AM 39.0 °F 29.0 °F 28.0 °F 65% 30.08 in - NE 20.7 mph 29.9 mph N/A   Clear
4:56 AM 37.9 °F 26.8 °F 26.1 °F 62% 30.12 in - NNE 24.2 mph 32.2 mph N/A   Clear
5:56 AM 37.9 °F 27.9 °F 27.0 °F 65% 30.17 in - NNE 19.6 mph 32.2 mph N/A   Clear
6:56 AM 37.0 °F 26.7 °F 28.9 °F 73% 30.20 in - NNE 19.6 mph 28.8 mph N/A   Partly Cloudy
7:23 AM 37.0 °F 25.6 °F 28.9 °F 73% 30.21 in - NE 24.2 mph 29.9 mph N/A   Mostly Cloudy
7:56 AM 37.0 °F 26.4 °F 28.0 °F 70% 30.24 in - NNE 20.7 mph 28.8 mph N/A   Mostly Cloudy
8:25 AM 37.0 °F 26.7 °F 28.0 °F 70% 30.23 in - NNE 19.6 mph 31.1 mph N/A   Scattered Clouds
8:56 AM 37.0 °F 26.7 °F 27.0 °F 67% 30.26 in - NNE 19.6 mph 29.9 mph N/A   Scattered Clouds
9:13 AM 37.9 °F 28.2 °F 27.0 °F 65% 30.26 in - NNE 18.4 mph 31.1 mph N/A   Scattered Clouds
9:56 AM 37.9 °F 27.3 °F 27.0 °F 65% 30.28 in - NNE 21.9 mph 31.1 mph N/A   Clear
10:56 AM 39.0 °F 28.5 °F 26.1 °F 60% 30.29 in - NNE 23.0 mph 28.8 mph N/A   Partly Cloudy
1:56 PM 39.9 °F 30.2 °F 27.0 °F 60% 30.28 in - NNE 20.7 mph 27.6 mph N/A   Overcast
2:56 PM 37.9 °F 27.3 °F 26.1 °F 62% 30.28 in - NNE 21.9 mph 27.6 mph N/A   Overcast
3:56 PM 37.0 °F 26.7 °F 26.1 °F 65% 30.29 in - NNE 19.6 mph 29.9 mph N/A   Overcast
4:56 PM 37.0 °F 26.7 °F 26.1 °F 65% 30.29 in - NNE 19.6 mph 27.6 mph N/A   Overcast
5:56 PM 36.0 °F 26.7 °F 25.0 °F 64% 30.30 in - NNE 15.0 mph 24.2 mph N/A   Mostly Cloudy
6:40 PM 36.0 °F 27.5 °F 27.0 °F 70% 30.29 in - NNE 12.7 mph - N/A   Mostly Cloudy
6:56 PM 37.0 °F 28.1 °F 26.1 °F 65% 30.31 in - NNE 15.0 mph - N/A   Overcast
7:56 PM 36.0 °F 25.6 °F 27.0 °F 70% 30.31 in - North 18.4 mph 24.2 mph N/A   Overcast
8:56 PM 37.0 °F 27.0 °F 27.0 °F 67% 30.32 in - NNE 18.4 mph - N/A   Overcast
9:56 PM 37.0 °F 28.9 °F 28.0 °F 70% 30.32 in - NNE 12.7 mph 20.7 mph N/A   Overcast
10:56 PM 37.0 °F 28.5 °F 30.0 °F 76% 30.30 in - NNE 13.8 mph - N/A   Overcast
11:14 PM 37.9 °F 29.2 °F 30.0 °F 73% 30.28 in - NNE 15.0 mph 23.0 mph N/A   Overcast
11:56 PM 37.9 °F 30.9 °F 30.9 °F 76% 30.28 in - NNE 10.4 mph - N/A   Overcast